Goshen, IN

1:16 AM EDT on April 27, 2018 (GMT -0400)
Goshen Municipal

Weather History for KGSH - May, 2012

Change the Weather History Date:

Friday, May 25, 2012

  Actual Average Record
Temperature  
Mean Temperature 76 °F -  
Max Temperature 82 °F 72 °F 92 °F (1977)
Min Temperature 68 °F 52 °F 34 °F (1992)
Cooling Degree Days 10    
Growing Degree Days 26 (Base 50)    
Moisture  
Dew Point 53 °F    
Average Humidity 45    
Maximum Humidity 62    
Minimum Humidity 29    
Precipitation  
Precipitation 0.00 in - - ()
Sea Level Pressure  
Sea Level Pressure 29.95 in    
Wind  
Wind Speed 12 mph (WNW)    
Max Wind Speed 17 mph    
Max Gust Speed 26 mph    
Visibility 10 miles    
Events      
Averages and records for this station are not official NWS values.
T = Trace of Precipitation, MM = Missing Value Source: NWS Daily Summary

Daily Weather History Graph

Daily Weather History Graph

Search for Another Location

Airport or City:

Astronomy

May. 25, 2012 Rise Set
Actual Time 6:15 AM EDT 9:05 PM EDT
Civil Twilight 5:42 AM EDT 9:38 PM EDT
Nautical Twilight 5:01 AM EDT 10:19 PM EDT
Astronomical Twilight 4:13 AM EDT 11:07 PM EDT
Moon 10:15 AM EDT (5/25) 12:03 AM EDT (5/25)
Length of Visible Light 15h 55m
Length of Day
14h 50m
Waxing Crescent, 19% of the Moon is Illuminated
May 25
Waxing Crescent
May 28
First Quarter
Jun 4
Full
Jun 11
Last Quarter
Jun 19
New

Hourly Weather History & Observations

Time (EDT) Temp. Heat Index Dew Point Humidity Pressure Visibility Wind Dir Wind Speed Gust Speed Precip Events Conditions
12:53 AM 75.9 °F - 48.9 °F 38% 29.79 in 10.0 mi South 12.7 mph 20.7 mph N/A   Clear
1:53 AM 77.0 °F - 51.1 °F 40% 29.78 in 10.0 mi South 17.3 mph 25.3 mph N/A   Mostly Cloudy
2:53 AM 77.0 °F - 53.1 °F 43% 29.78 in 10.0 mi South 15.0 mph 26.5 mph N/A   Partly Cloudy
3:53 AM 77.0 °F - 54.0 °F 45% 29.79 in 10.0 mi South 17.3 mph 25.3 mph N/A   Clear
4:53 AM 75.0 °F - 55.9 °F 51% 29.80 in 10.0 mi South 12.7 mph - N/A   Partly Cloudy
5:53 AM 75.0 °F - 57.9 °F 55% 29.82 in 10.0 mi SSW 11.5 mph - N/A   Scattered Clouds
6:53 AM 75.0 °F - 60.1 °F 60% 29.83 in 10.0 mi SSW 10.4 mph - N/A   Clear
7:53 AM 75.0 °F - 61.0 °F 62% 29.89 in 10.0 mi SW 11.5 mph - N/A   Clear
8:53 AM 77.0 °F - 62.1 °F 60% 29.93 in 10.0 mi WSW 12.7 mph 20.7 mph N/A   Clear
10:53 AM 75.9 °F - 60.1 °F 58% 29.97 in 10.0 mi WNW 13.8 mph - N/A   Clear
11:53 AM 77.0 °F - 59.0 °F 54% 29.99 in 10.0 mi NW 8.1 mph - N/A   Clear
12:53 PM 78.1 °F - 54.0 °F 43% 30.01 in 10.0 mi NW 8.1 mph 16.1 mph N/A   Clear
1:53 PM 80.1 °F 80.2 °F 55.9 °F 43% 30.00 in 10.0 mi Variable 4.6 mph - N/A   Clear
2:53 PM 82.0 °F 81.2 °F 53.1 °F 37% 30.00 in 10.0 mi NW 10.4 mph - N/A   Clear
3:53 PM 82.0 °F - 52.0 °F 35% 30.02 in 10.0 mi NW 8.1 mph - N/A   Clear
4:53 PM 81.0 °F - 52.0 °F 36% 30.01 in 10.0 mi WNW 6.9 mph - N/A   Scattered Clouds
5:53 PM 82.0 °F - 46.9 °F 29% 30.02 in 10.0 mi NW 9.2 mph - N/A   Clear
6:53 PM 81.0 °F - 48.9 °F 33% 30.03 in 10.0 mi NNW 10.4 mph - N/A   Clear
7:53 PM 78.1 °F - 48.0 °F 35% 30.04 in 10.0 mi North 11.5 mph - N/A   Clear
8:53 PM 73.9 °F - 48.0 °F 40% 30.05 in 10.0 mi North 10.4 mph - N/A   Clear
9:53 PM 70.0 °F - 50.0 °F 49% 30.06 in 10.0 mi North 8.1 mph - N/A   Clear
10:53 PM 69.1 °F - 48.0 °F 47% 30.09 in 10.0 mi North 10.4 mph - N/A   Clear
11:53 PM 68.0 °F - 46.0 °F 45% 30.09 in 10.0 mi NNE 10.4 mph - N/A   Mostly Cloudy